Location: Warner Observatory
(35.1353°N, 89.5455°W)
Time: 16:01:50
(UTC-05:00)

Amateur Radio Satellites - All Passes

Search period start: 01 September 2014 15:31
Search period end: 02 September 2014 15:31
Location: Warner Observatory, 35.1353°N, 89.5455°W

Satellite Date Start Highest point End Downlink Frequencies (MHz)
Time Altitude Azimuth
UOSAT-12 01 Sep 15:39:22 15:42:52 21° 250° (WSW) 15:46:19 437.025 FM, 437.400 FM
ITAMSAT 1 01 Sep 15:44:30 15:47:36 16° 267° (W) 15:50:43 435.822 SSB
PANSAT 01 Sep 15:53:25 15:54:49 12° 201° (SSW) 15:56:13 not established
Uribyol 2 01 Sep 15:55:31 15:57:13 12° 269° (W) 15:58:55 436.500 FM
RS-15 01 Sep 16:01:38 16:12:07 45° 50° (NE) 16:22:56 29.354 - 29.394 USB, Beacon 29.352 USB
TMSAT-1 01 Sep 16:01:39 16:06:26 35° 262° (W) 16:11:16 436.925 FM
ISS 01 Sep 16:05:05 16:07:35 19° 31° (NNE) 16:10:06 145.800 FM
Uosat F 01 Sep 16:10:15 16:15:05 51° 73° (ENE) 16:19:55 435.120 FM
Sapphire 01 Sep 16:16:48 16:21:59 50° 111° (ESE) 16:27:12 437.095 MHz 1200 baud AX-25 AFSK
AO-7 01 Sep 16:30:01 16:38:23 90° 73° (ENE) 16:46:45 29.400 - 29.500 MHz
JAS-1B 01 Sep 16:38:16 16:43:30 16° 270° (W) 16:48:34 435.800 - 435.900 CW/SSB
JAS-2 01 Sep 16:39:05 16:40:36 11° 63° (ENE) 16:42:05 435.800 - 435.900 CW/SSB, 435.910 FM
PCSat 01 Sep 16:45:48 16:51:12 81° 296° (WNW) 16:56:39 145.825 MHz
Hamsat 01 Sep 17:36:24 17:40:15 32° 72° (ENE) 17:44:08 145.90 MHz
ISS 01 Sep 17:41:17 17:44:27 41° 227° (SW) 17:47:35 145.800 FM
OPAL 01 Sep 17:42:01 17:47:16 84° 286° (WNW) 17:52:27 ?
Uosat F 01 Sep 17:51:16 17:54:06 15° 267° (W) 17:56:57 435.120 FM
Sapphire 01 Sep 18:01:39 18:05:40 21° 308° (NW) 18:09:43 437.095 MHz 1200 baud AX-25 AFSK
RS-15 01 Sep 18:13:59 18:24:33 51° 250° (WSW) 18:35:35 29.354 - 29.394 USB, Beacon 29.352 USB
JAS-2 01 Sep 18:18:50 18:25:07 86° 257° (WSW) 18:30:42 435.800 - 435.900 CW/SSB, 435.910 FM
AO-7 01 Sep 18:27:37 18:32:00 15° 268° (W) 18:36:24 29.400 - 29.500 MHz
PCSat 01 Sep 18:33:44 18:35:28 11° 314° (NW) 18:37:12 145.825 MHz
SO-67 01 Sep 18:41:04 18:43:37 19° 71° (ENE) 18:46:09 435.3500 MHz FM
Hamsat 01 Sep 19:13:18 19:16:14 18° 266° (W) 19:19:13 145.90 MHz
STRAND 1 01 Sep 19:29:13 19:34:12 53° 101° (E) 19:39:11 ?
HO-68 01 Sep 19:49:00 19:54:01 21° 60° (ENE) 19:59:02 435.675 MHz FM
SO-67 01 Sep 20:14:06 20:16:32 18° 265° (W) 20:18:59 435.3500 MHz FM
UKube-1 01 Sep 21:08:17 21:12:13 34° 72° (ENE) 21:16:09 145.840 MHz, 145.915 MHz
STRAND 1 01 Sep 21:09:52 21:12:55 16° 295° (WNW) 21:15:58 ?
Oscar 11 01 Sep 21:12:39 21:16:04 23° 70° (ENE) 21:19:31 145.825 FM, Beacon 2401.500 USB
HO-68 01 Sep 21:33:57 21:41:02 68° 257° (WSW) 21:48:10 435.675 MHz FM
Saudisat 1A 01 Sep 21:41:43 21:45:50 41° 114° (ESE) 21:49:59 436.775 MHz
FUNcube-1 01 Sep 21:44:50 21:47:49 19° 69° (ENE) 21:50:51 145.950 - 145.970 MHz USB
AO-40 01 Sep 22:09:26 04:08:20 46° 157° (SSE) 05:45:10 Beacon 2401.320
MaSat-1 01 Sep 22:09:41 22:13:29 28° 58° (ENE) 22:16:50 437.345 MHz
KITSAT 1 01 Sep 22:24:10 22:31:30 39° 108° (ESE) 22:38:49 435.175 FM
UKube-1 01 Sep 22:45:39 22:48:29 17° 265° (W) 22:51:19 145.840 MHz, 145.915 MHz
Oscar 11 01 Sep 22:48:32 22:52:07 25° 264° (W) 22:55:44 145.825 FM, Beacon 2401.500 USB
FUNcube-1 01 Sep 23:20:23 23:24:00 28° 263° (W) 23:27:42 145.950 - 145.970 MHz USB
Saudisat 1A 01 Sep 23:22:27 23:25:35 19° 310° (NW) 23:28:43 436.775 MHz
MaSat-1 01 Sep 23:47:11 23:50:10 19° 259° (WSW) 23:52:52 437.345 MHz
KITSAT 1 02 Sep 00:19:11 00:26:45 43° 306° (NW) 00:34:22 435.175 FM
Sapphire 02 Sep 01:08:35 01:12:45 22° 52° (NE) 01:16:53 437.095 MHz 1200 baud AX-25 AFSK
PCSat 02 Sep 01:37:10 01:42:17 40° 58° (ENE) 01:47:21 145.825 MHz
Oscar 19 02 Sep 01:41:53 01:46:03 24° 95° (E) 01:50:10 437.125 CW, 437.150 USB
AO-Echo 02 Sep 01:52:25 01:54:06 12° 92° (E) 01:55:47 ?
Oscar 16 02 Sep 02:16:27 02:21:34 57° 101° (E) 02:26:39 437.025 USB, Beacon 2401.1428
ITAMSAT 1 02 Sep 02:19:39 02:23:46 24° 96° (E) 02:27:52 435.822 SSB
SO-50 02 Sep 02:21:32 02:25:03 23° 111° (ESE) 02:28:39 436.795 FM
Uribyol 2 02 Sep 02:28:37 02:33:12 31° 97° (E) 02:37:47 436.500 FM
JAS-1B 02 Sep 02:34:51 02:40:23 31° 95° (E) 02:45:25 435.800 - 435.900 CW/SSB
TMSAT-1 02 Sep 02:43:13 02:45:08 12° 91° (E) 02:47:03 436.925 FM
AO-27 02 Sep 02:48:39 02:53:39 47° 100° (E) 02:58:39 436.795 MHz FM
Sapphire 02 Sep 02:51:12 02:56:23 47° 249° (WSW) 03:01:33 437.095 MHz 1200 baud AX-25 AFSK
OPAL 02 Sep 03:18:15 03:20:38 13° 61° (ENE) 03:23:01 ?
Oscar 19 02 Sep 03:20:43 03:25:23 34° 290° (WNW) 03:30:01 437.125 CW, 437.150 USB
PCSat 02 Sep 03:21:12 03:25:24 23° 254° (WSW) 03:29:35 145.825 MHz
AO-Echo 02 Sep 03:28:35 03:33:10 56° 286° (WNW) 03:37:49 ?
Gurwin Techsat 1B 02 Sep 03:30:19 03:35:31 54° 100° (E) 03:40:41 435.225 FM
Oscar 16 02 Sep 03:57:25 04:00:24 16° 296° (WNW) 04:03:22 437.025 USB, Beacon 2401.1428
ITAMSAT 1 02 Sep 03:58:36 04:03:16 35° 290° (WNW) 04:07:56 435.822 SSB
SO-50 02 Sep 04:01:29 04:05:26 30° 307° (NW) 04:09:28 436.795 FM
UOSAT-12 02 Sep 04:07:29 04:11:02 23° 110° (ESE) 04:14:39 437.025 FM, 437.400 FM
Uribyol 2 02 Sep 04:08:13 04:12:31 27° 292° (WNW) 04:16:50 436.500 FM
TMSAT-1 02 Sep 04:20:13 04:25:29 69° 285° (WNW) 04:30:43 436.925 FM
Uosat F 02 Sep 04:22:04 04:25:43 20° 95° (E) 04:29:21 435.120 FM
JAS-1B 02 Sep 04:25:27 04:30:59 31° 295° (WNW) 04:36:00 435.800 - 435.900 CW/SSB
AO-27 02 Sep 04:29:18 04:32:46 18° 295° (WNW) 04:36:13 436.795 MHz FM
AO-7 02 Sep 04:35:47 04:43:18 37° 99° (E) 04:50:46 29.400 - 29.500 MHz
OPAL 02 Sep 04:53:51 04:58:52 67° 256° (WSW) 05:03:59 ?
Gurwin Techsat 1B 02 Sep 05:11:42 05:15:00 17° 295° (WNW) 05:18:18 435.225 FM
JAS-2 02 Sep 05:33:49 05:35:18 11° 93° (E) 05:36:49 435.800 - 435.900 CW/SSB, 435.910 FM
UOSAT-12 02 Sep 05:46:46 05:50:57 34° 306° (NW) 05:55:14 437.025 FM, 437.400 FM
Uosat F 02 Sep 05:59:58 06:04:35 38° 289° (WNW) 06:09:11 435.120 FM
Saudisat 1A 02 Sep 06:12:23 06:15:02 16° 48° (NE) 06:17:41 436.775 MHz
RS-15 02 Sep 06:22:09 06:31:52 36° 106° (ESE) 06:41:20 29.354 - 29.394 USB, Beacon 29.352 USB
KITSAT 1 02 Sep 06:22:29 06:25:53 13° 35° (NE) 06:29:16 435.175 FM
AO-7 02 Sep 06:28:24 06:36:03 44° 295° (WNW) 06:43:42 29.400 - 29.500 MHz
STRAND 1 02 Sep 06:42:00 06:46:57 55° 73° (ENE) 06:51:55 ?
Hamsat 02 Sep 07:00:41 07:05:02 78° 283° (WNW) 07:09:19 145.90 MHz
JAS-2 02 Sep 07:15:23 07:20:43 74° 285° (WNW) 07:26:35 435.800 - 435.900 CW/SSB, 435.910 FM
SO-67 02 Sep 07:39:59 07:43:11 34° 98° (E) 07:46:21 435.3500 MHz FM
Saudisat 1A 02 Sep 07:50:38 07:54:55 53° 244° (WSW) 07:59:11 436.775 MHz
KITSAT 1 02 Sep 08:15:19 08:23:14 56° 58° (ENE) 08:31:06 435.175 FM
STRAND 1 02 Sep 08:23:46 08:26:26 14° 267° (W) 08:29:06 ?
RS-15 02 Sep 08:32:47 08:43:38 57° 305° (NW) 08:54:21 29.354 - 29.394 USB, Beacon 29.352 USB
ISS 02 Sep 08:45:07 08:48:01 28° 131° (SE) 08:50:55 145.800 FM
HO-68 02 Sep 09:05:51 09:11:49 28° 96° (E) 09:17:45 435.675 MHz FM
SO-67 02 Sep 09:15:14 09:15:51 10° 292° (WNW) 09:16:28 435.3500 MHz FM
KITSAT 1 02 Sep 10:11:33 10:18:07 29° 255° (WSW) 10:24:41 435.175 FM
ISS 02 Sep 10:21:55 10:24:43 25° 326° (NW) 10:27:31 145.800 FM
PANSAT 02 Sep 10:27:51 10:30:37 19° 165° (SSE) 10:33:24 not established
UKube-1 02 Sep 10:35:18 10:39:39 79° 284° (WNW) 10:43:59 145.840 MHz, 145.915 MHz
Oscar 11 02 Sep 10:38:28 10:42:50 73° 101° (ESE) 10:47:10 145.825 FM, Beacon 2401.500 USB
RS-15 02 Sep 10:52:30 10:59:05 17° 333° (NNW) 11:05:42 29.354 - 29.394 USB, Beacon 29.352 USB
HO-68 02 Sep 10:52:52 10:59:39 48° 292° (WNW) 11:06:27 435.675 MHz FM
SO-50 02 Sep 10:56:53 10:58:56 13° 45° (NE) 11:00:59 436.795 FM
FUNcube-1 02 Sep 11:11:41 11:16:14 67° 101° (E) 11:20:49 145.950 - 145.970 MHz USB
MaSat-1 02 Sep 11:53:47 11:57:43 26° 103° (ESE) 12:01:53 437.345 MHz
PANSAT 02 Sep 12:06:56 12:10:20 30° 177° (S) 12:13:45 not established
SO-50 02 Sep 12:35:16 12:40:06 84° 242° (WSW) 12:44:57 436.795 FM
UOSAT-12 02 Sep 12:41:35 12:42:46 11° 43° (NE) 12:43:57 437.025 FM, 437.400 FM
Oscar 10/S400 02 Sep 12:47:52 03:26:47 51° 225° (SW) 12:58:43 145.825 - 145.975 CW/USB, Beacon 145.810 USB
FUNcube-1 02 Sep 12:50:58 12:52:02 11° 295° (WNW) 12:53:07 145.950 - 145.970 MHz USB
Oscar 19 02 Sep 12:55:48 13:00:00 26° 68° (ENE) 13:04:13 437.125 CW, 437.150 USB
AO-Echo 02 Sep 13:02:38 13:04:49 13° 65° (ENE) 13:06:59 ?
JAS-1B 02 Sep 13:13:29 13:21:30 31° 65° (ENE) 13:28:47 435.800 - 435.900 CW/SSB
RS-15 02 Sep 13:14:12 13:18:23 12° 13° (NNE) 13:22:36 29.354 - 29.394 USB, Beacon 29.352 USB
MaSat-1 02 Sep 13:30:06 13:34:32 33° 300° (WNW) 13:39:11 437.345 MHz
Oscar 16 02 Sep 13:30:11 13:35:14 59° 74° (ENE) 13:40:20 437.025 USB, Beacon 2401.1428
ITAMSAT 1 02 Sep 13:34:44 13:38:59 27° 68° (ENE) 13:43:14 435.822 SSB
Uribyol 2 02 Sep 13:43:30 13:48:06 34° 70° (ENE) 13:52:44 436.500 FM
PANSAT 02 Sep 13:46:55 13:50:07 24° 190° (S) 13:53:18 not established
TMSAT-1 02 Sep 14:00:44 14:03:39 15° 64° (ENE) 14:06:34 436.925 FM
AO-27 02 Sep 14:03:40 14:08:40 53° 73° (ENE) 14:13:41 436.795 MHz FM
UOSAT-12 02 Sep 14:18:53 14:23:38 85° 61° (ENE) 14:28:16 437.025 FM, 437.400 FM
Oscar 19 02 Sep 14:34:34 14:39:09 32° 263° (W) 14:43:47 437.125 CW, 437.150 USB
AO-Echo 02 Sep 14:38:05 14:43:05 63° 259° (W) 14:47:56 ?
Gurwin Techsat 1B 02 Sep 14:48:12 14:53:24 62° 74° (ENE) 14:58:39 435.225 FM
JAS-1B 02 Sep 15:01:45 15:11:27 63° 258° (WSW) 15:20:16 435.800 - 435.900 CW/SSB
Oscar 16 02 Sep 15:12:27 15:14:55 13° 268° (W) 15:17:24 437.025 USB, Beacon 2401.1428
ITAMSAT 1 02 Sep 15:13:46 15:18:19 31° 263° (W) 15:22:53 435.822 SSB
ISS 02 Sep 15:17:09 15:18:51 13° 27° (NNE) 15:20:33 145.800 FM
Uribyol 2 02 Sep 15:23:30 15:27:35 24° 264° (W) 15:31:42 436.500 FM
PANSAT 02 Sep 15:28:37 15:29:43 11° 202° (SSW) 15:30:48 not established
